Terminal Aerodrome Forecast
Issued by NWS Sterling, VA

Current Version | Previous Version | Text Only | Print | Product List | Glossary Off
Versions: 1 2 3 4 5 6 7 8 9 10 11 12 13 14 15 16 17 18 19 20 21 22 23 24 25 26 27 28 29 30 31

046
FTUS41 KLWX 021501 AAA
TAFIAD
TAF AMD
KIAD 021501Z 0215/0318 21008KT 6SM BR OVC008
     FM021800 23008KT P6SM BKN035
     FM022000 21008KT P6SM VCTS BKN035CB
     FM030000 23006KT 5SM -SHRA BR VCTS OVC050CB
     FM030200 27005KT 3SM -SHRA BR OVC040
     FM030500 35004KT 2SM SHRA BR OVC003
     FM031500 36006KT 3SM -SHRA OVC008=

USA.gov is the U.S. government's official web portal to all federal, state and local government web resources and services.